Deer Park, WA
on Wednesday, February 20, 2013

Wednesday
Previous Day Next Day
Daily Summary
 ActualAverageRecord
Temperature
Mean Temperature °F / °C 31°F / -1°C  
Max Temperature 36°F / 2°C 41°F / 5°C 45°F / 7°C (2005)
Min Temperature 14°F / -10°C 21°F / -6°C 8°F / -13°C (2008)
Degree Days
Heating Degree Days 40 34  
Month to date heating degree days 693 705  
Since 1 July heating degree days 4801 5101  
Cooling Degree Days 0 0  
Month to date cooling degree days 0 0  
Year to date cooling degree days 0 0  
Moisture
Dew Point 25°F / -4°C   
Average Humidity 80    
Maximum Humidity 100    
Minimum Humidity 59    
Precipitation
Precipitation T in / T cm 0.05 in / 1.27 cm 0.13 in / 0.33 cm (2003)
Month to date precipitation 0.15 1.20  
Year to date precipitation 1.65 3.83  
Wind
Wind Speed 3 mph / 4 km/h   
Max Wind Speed 10 mph / 16 km/h   
Max Gust Speed 13 mph / 21 km/h   
Visibility 4 miles / 7 kilometers   
Events Fog , Snow   

Key: T is trace of precipitation, MM is missing value
Source: NWS Daily Summary
Time(PST)TemperatureDew PointHumidity Pressure Visibility Wind DirectionWind SpeedGust SpeedPrecipitationEvents Conditions
12:14 AM 30.2°F / -1.0°C 30.2°F / -1.0°C 100% 29.84 in / 1010.4 hPa 2.0 miles / 3.2 kilometers SSE 3.5 mph / 5.6 km/h - N/A   Overcast
12:20 AM 30.2°F / -1.0°C 30.2°F / -1.0°C 100% 29.84 in / 1010.4 hPa 1.0 miles / 1.6 kilometers Calm Calm - N/A   Overcast
12:33 AM 30.2°F / -1.0°C 30.2°F / -1.0°C 100% 29.85 in / 1010.7 hPa 1.8 miles / 2.8 kilometers South 3.5 mph / 5.6 km/h - N/A   Overcast
12:40 AM 30.2°F / -1.0°C 30.2°F / -1.0°C 100% 29.85 in / 1010.7 hPa 2.5 miles / 4.0 kilometers SSE 3.5 mph / 5.6 km/h - N/A   Overcast
12:53 AM 30.9°F / -0.6°C 30.0°F / -1.1°C 96% 29.91 in / 1012.6 hPa 2.5 miles / 4.0 kilometers Calm Calm - N/A   Overcast
1:04 AM 30.2°F / -1.0°C 30.2°F / -1.0°C 100% 29.85 in / 1010.7 hPa 2.0 miles / 3.2 kilometers Calm Calm - 0.00 in / 0.0 cm Snow Light Snow
1:35 AM 30.2°F / -1.0°C 30.2°F / -1.0°C 100% 29.86 in / 1011.1 hPa 1.8 miles / 2.8 kilometers SSE 4.6 mph / 7.4 km/h - 0.00 in / 0.0 cm Snow Light Snow
1:51 AM 30.2°F / -1.0°C 30.2°F / -1.0°C 100% 29.86 in / 1011.1 hPa 2.5 miles / 4.0 kilometers SSE 4.6 mph / 7.4 km/h - 0.00 in / 0.0 cm   Overcast
1:53 AM 28.9°F / -1.7°C 28.9°F / -1.7°C 100% 29.92 in / 1013.0 hPa 2.0 miles / 3.2 kilometers SSE 3.5 mph / 5.6 km/h - 0.00 in / 0.0 cm   Overcast
1:58 AM 28.4°F / -2.0°C 28.4°F / -2.0°C 100% 29.86 in / 1011.1 hPa 1.2 miles / 2.0 kilometers SSE 3.5 mph / 5.6 km/h - N/A   Overcast
2:04 AM 28.4°F / -2.0°C 28.4°F / -2.0°C 100% 29.86 in / 1011.1 hPa 0.8 miles / 1.2 kilometers Calm Calm - N/A   Overcast
2:10 AM 28.4°F / -2.0°C 28.4°F / -2.0°C 100% 29.86 in / 1011.1 hPa 1.0 miles / 1.6 kilometers Calm Calm - N/A   Overcast
2:15 AM 28.4°F / -2.0°C 28.4°F / -2.0°C 100% 29.86 in / 1011.1 hPa 0.8 miles / 1.2 kilometers Calm Calm - N/A   Overcast
2:22 AM 28.4°F / -2.0°C 28.4°F / -2.0°C 100% 29.86 in / 1011.1 hPa 0.5 miles / 0.8 kilometers Calm Calm - N/A Fog Light Freezing Fog
2:53 AM 27.0°F / -2.8°C 27.0°F / -2.8°C 100% 29.93 in / 1013.4 hPa 0.2 miles / 0.4 kilometers Calm Calm - N/A Fog Light Freezing Fog
3:04 AM 28.4°F / -2.0°C 26.6°F / -3.0°C 93% 29.87 in / 1011.4 hPa 0.5 miles / 0.8 kilometers Calm Calm - N/A Fog Light Freezing Fog
3:11 AM 26.6°F / -3.0°C 24.8°F / -4.0°C 93% 29.87 in / 1011.4 hPa 1.0 miles / 1.6 kilometers Calm Calm - N/A   Overcast
3:14 AM 26.6°F / -3.0°C 24.8°F / -4.0°C 93% 29.87 in / 1011.4 hPa 0.8 miles / 1.2 kilometers Calm Calm - N/A   Overcast
3:23 AM 28.4°F / -2.0°C 26.6°F / -3.0°C 93% 29.87 in / 1011.4 hPa 2.0 miles / 3.2 kilometers SSW 3.5 mph / 5.6 km/h - N/A   Overcast
3:31 AM 28.4°F / -2.0°C 26.6°F / -3.0°C 93% 29.87 in / 1011.4 hPa 6.0 miles / 9.7 kilometers SSW 3.5 mph / 5.6 km/h - N/A   Overcast
3:53 AM 27.0°F / -2.8°C 27.0°F / -2.8°C 100% 29.94 in / 1013.7 hPa 8.0 miles / 12.9 kilometers WSW 4.6 mph / 7.4 km/h - N/A   Overcast
5:53 AM 21.0°F / -6.1°C 21.0°F / -6.1°C 100% 29.97 in / 1014.7 hPa 10.0 miles / 16.1 kilometers Calm Calm - N/A   Clear
6:49 AM 21.2°F / -6.0°C 19.4°F / -7.0°C 93% 29.90 in / 1012.4 hPa 1.2 miles / 2.0 kilometers Calm Calm - N/A   Partly Cloudy
6:53 AM 19.9°F / -6.7°C 19.9°F / -6.7°C 100% 29.98 in / 1015.1 hPa 1.0 miles / 1.6 kilometers Calm Calm - N/A   Partly Cloudy
7:05 AM 19.4°F / -7.0°C 19.4°F / -7.0°C 100% 29.91 in / 1012.8 hPa 2.0 miles / 3.2 kilometers Calm Calm - N/A   Clear
7:12 AM 19.4°F / -7.0°C 17.6°F / -8.0°C 93% 29.91 in / 1012.8 hPa 1.5 miles / 2.4 kilometers Calm Calm - N/A   Partly Cloudy
7:28 AM 21.2°F / -6.0°C 21.2°F / -6.0°C 100% 29.91 in / 1012.8 hPa 3.0 miles / 4.8 kilometers Calm Calm - N/A   Clear
7:37 AM 21.2°F / -6.0°C 21.2°F / -6.0°C 100% 29.92 in / 1013.1 hPa 1.8 miles / 2.8 kilometers Calm Calm - N/A   Partly Cloudy
7:53 AM 21.9°F / -5.6°C 21.0°F / -6.1°C 96% 29.99 in / 1015.5 hPa 2.0 miles / 3.2 kilometers WSW 3.5 mph / 5.6 km/h - N/A   Mostly Cloudy
8:53 AM 26.1°F / -3.3°C 25.0°F / -3.9°C 96% 30.00 in / 1015.7 hPa 10.0 miles / 16.1 kilometers Calm Calm - N/A   Overcast
9:53 AM 28.9°F / -1.7°C 27.0°F / -2.8°C 92% 29.99 in / 1015.6 hPa 10.0 miles / 16.1 kilometers WSW 3.5 mph / 5.6 km/h - N/A   Overcast
11:53 AM 35.1°F / 1.7°C 23.0°F / -5.0°C 61% 29.99 in / 1015.5 hPa 10.0 miles / 16.1 kilometers Calm Calm - N/A   Clear
12:53 PM 35.1°F / 1.7°C 28.9°F / -1.7°C 78% 29.98 in / 1015.2 hPa 10.0 miles / 16.1 kilometers SSW 5.8 mph / 9.3 km/h - N/A   Partly Cloudy
2:53 PM 35.1°F / 1.7°C 27.0°F / -2.8°C 72% 29.98 in / 1015.1 hPa 10.0 miles / 16.1 kilometers SSW 6.9 mph / 11.1 km/h - N/A   Clear
3:53 PM 35.1°F / 1.7°C 25.0°F / -3.9°C 67% 29.99 in / 1015.3 hPa 10.0 miles / 16.1 kilometers SSW 6.9 mph / 11.1 km/h - N/A   Clear
4:53 PM 32.0°F / 0.0°C 25.0°F / -3.9°C 75% 30.00 in / 1015.8 hPa 10.0 miles / 16.1 kilometers SSW 6.9 mph / 11.1 km/h - N/A   Clear
5:53 PM 27.0°F / -2.8°C 21.9°F / -5.6°C 81% 30.03 in / 1016.8 hPa 10.0 miles / 16.1 kilometers Calm Calm - N/A   Clear
6:53 PM 23.0°F / -5.0°C 21.0°F / -6.1°C 92% 30.04 in / 1017.3 hPa 10.0 miles / 16.1 kilometers Calm Calm - N/A   Clear
8:53 PM 18.0°F / -7.8°C 17.1°F / -8.3°C 96% 30.04 in / 1017.3 hPa 10.0 miles / 16.1 kilometers West 4.6 mph / 7.4 km/h - N/A   Clear
9:53 PM 19.0°F / -7.2°C 17.1°F / -8.3°C 92% 30.05 in / 1017.4 hPa 10.0 miles / 16.1 kilometers Calm Calm - N/A   Clear
10:53 PM 18.0°F / -7.8°C 16.0°F / -8.9°C 92% 30.04 in / 1017.2 hPa 9.0 miles / 14.5 kilometers Calm Calm - N/A   Clear
11:53 PM 17.1°F / -8.3°C 14.0°F / -10.0°C 88% 30.04 in / 1017.3 hPa 3.0 miles / 4.8 kilometers Calm Calm - N/A   Clear
Moon Phase
Feb. 20 Feb. 25 Mar. 04 Mar. 11 Mar. 19
Sunrise:06:46 AM (PST) Moon Rise:12:32 PM (PST)2/20
Sunset:05:20 PM (PST) Moon Set:03:24 AM (PST)2/20

Copyright © 2014 The Weather Underground, Inc.